Torna al catalogo

THORAD DELTA 1 DEB

AttivoSSO
NORAD 8396·DEBRIS·🇺🇸 United States

Lanciato Nov 15, 1974 da Vandenberg Space Force Base

Loading…

Prossimi Passaggi (prossime 24 ore)

TLE

AggiornatoSource: Space-Track

Epoca: Sep 13, 2026, 03:22 UTC

1 08396U 74089BY  26256.14088006 -.00000065  00000-0 -13297-3 0  9990
2 08396 102.1153 332.0216 0063351 278.8006 110.4736 12.42766856353681

Traccia THORAD DELTA 1 DEB in tempo reale con AllMySat

Download on the App Store